Wind_Speed
12 12 11 10 10 10 9 9 8 8 9 8 8 8 8 7 7 7 8 8 9 9 9 9 10 11 11 10 10 10 11 11 9 8 9 9 8 8 9 10 9 9 8
11 11 11 10 10 10 10 9 9 8 8 8 8 7 7 7 7 7 8 8 8 9 9 10 10 10 10 10 10 10 10 10 9 9 9 8 8 9 10 10 9 8 7
12 12 11 11 10 10 10 9 9 8 8 8 8 7 7 7 7 8 8 8 8 9 9 10 10 10 10 10 9 10 10 10 10 9 9 8 8 9 9 9 8 8 8
12 12 11 11 11 10 9 9 9 8 8 8 8 7 7 7 8 8 8 8 9 9 9 9 9 9 9 9 10 10 10 9 9 9 9 9 9 9 8 8 8 8 7
12 11 11 11 11 10 10 9 9 9 9 8 8 8 7 8 8 8 8 8 8 8 8 9 9 8 9 9 9 9 9 9 9 9 9 9 8 8 7 7 7 7 7
12 12 12 11 11 11 10 9 9 9 9 9 8 8 9 8 8 8 8 8 8 8 8 8 8 8 8 9 10 9 8 8 9 8 8 7 7 7 7 6 6 6 6
13 13 13 12 12 11 11 10 10 10 10 10 9 9 10 9 8 8 8 8 8 8 8 8 8 8 8 9 9 9 8 8 8 8 7 6 6 6 6 6 5 5 5
14 13 13 13 13 12 11 11 11 11 11 11 10 10 10 9 9 8 8 8 8 8 8 8 8 8 9 9 8 8 8 7 7 7 6 7 7 6 6 5 5 5 5
14 14 14 13 13 13 12 12 12 12 11 11 11 11 10 9 9 9 8 8 8 7 7 7 8 8 8 8 8 7 7 6 6 6 6 6 6 5 5 4 4 5 5
14 15 14 14 14 13 13 12 12 12 12 11 11 10 10 9 9 8 8 8 8 7 7 7 7 7 7 7 6 6 5 5 5 5 5 5 4 4 4 4 4 4 5
15 15 15 14 14 13 13 13 12 12 11 11 10 10 10 9 9 8 8 8 7 6 6 6 6 6 6 5 5 5 4 4 4 4 4 4 4 4 4 4 4 4 4
15 14 15 15 14 13 13 13 13 12 11 11 11 10 9 9 8 8 7 7 6 6 6 6 6 5 4 4 4 4 3 3 2 2 3 3 3 4 4 4 4 4 3
16 15 15 14 14 13 13 13 13 12 12 11 10 10 9 9 8 7 7 6 6 6 6 5 5 4 4 4 3 3 3 2 2 2 3 3 3 4 3 4 4 4 4
16 15 15 14 14 13 13 13 12 12 11 11 11 10 9 8 7 7 6 6 6 6 6 5 4 4 3 3 3 2 2 1 2 3 3 4 4 5 5 4 4 4 4
16 16 15 14 14 13 12 11 11 11 11 11 10 9 9 8 7 6 5 5 5 4 4 4 3 3 2 2 2 1 0 1 2 3 3 4 5 5 5 4 5 5 5
17 15 15 14 13 12 12 11 10 9 10 9 9 8 7 7 6 6 5 5 4 3 4 4 3 3 2 1 1 1 1 2 3 4 5 4 4 5 5 5 5 5 5
16 15 14 14 13 12 11 11 9 8 8 8 7 7 7 6 6 6 5 5 4 4 4 3 3 3 2 2 2 3 3 4 4 4 4 5 5 4 5 5 6 6 7
16 15 15 14 14 13 11 11 10 9 8 7 6 6 6 5 5 5 4 4 4 4 3 3 2 2 2 3 3 4 5 5 5 5 5 6 6 6 5 6 7 7 8
15 15 14 14 13 13 12 11 10 9 8 8 7 6 5 5 4 4 4 4 4 3 3 3 3 2 3 3 4 4 5 6 6 6 6 7 7 6 6 7 8 9 9
15 14 14 14 13 13 12 10 10 9 8 7 7 7 6 4 4 4 3 3 3 3 3 3 3 3 3 4 4 5 5 6 6 6 6 6 7 7 7 8 8 9 9
14 14 13 13 13 12 12 11 10 8 7 7 6 6 6 5 5 4 3 3 3 3 3 4 4 4 4 5 5 5 5 6 6 6 6 5 5 7 8 9 9 9 10
14 14 13 13 13 12 11 10 9 8 8 7 6 6 6 6 6 5 5 4 4 4 4 4 4 4 5 6 6 5 6 5 6 6 6 6 6 7 8 9 9 9 10
12 12 12 12 12 12 11 10 10 9 8 7 7 7 6 6 6 6 6 5 5 5 5 5 5 5 6 6 6 7 7 7 7 7 7 7 8 8 9 9 10 11 11
11 11 11 11 11 11 11 11 10 10 9 8 8 8 7 7 7 7 7 6 6 5 6 5 5 5 6 7 7 7 7 7 7 8 8 8 9 9 9 11 12 12 12
10 10 11 11 11 11 11 11 11 9 9 9 7 7 7 7 7 7 7 7 7 7 7 7 6 7 7 8 7 8 8 8 9 9 9 10 10 11 12 12 12 12 12
10 10 10 11 11 11 11 11 10 10 9 9 8 8 7 7 8 8 8 8 7 8 8 8 9 8 8 8 8 9 9 8 9 10 10 11 12 13 13 13 13 13 14
Wind_Direction
77 82 87 91 90 91 97 101 108 112 108 111 114 117 115 113 107 106 110 117 116 113 113 110 111 111 112 116 117 119 117 122 125 127 125 131 141 145 143 140 142 144 141
80 83 86 89 91 92 97 101 106 108 109 113 116 118 116 112 106 107 114 117 117 116 116 113 105 108 116 115 114 117 115 119 120 121 122 128 134 134 136 138 139 142 142
83 87 88 92 96 97 101 103 101 103 107 112 116 118 118 114 112 110 115 120 119 118 118 116 107 103 110 117 118 115 114 118 122 121 122 129 133 132 135 141 145 144 143
87 89 88 91 95 100 102 102 99 99 102 111 116 116 118 116 115 114 113 118 116 116 115 111 109 107 112 118 118 115 115 118 120 120 124 123 127 131 135 140 146 150 147
87 89 89 90 93 97 100 99 98 99 103 108 111 113 113 115 116 115 114 116 115 114 110 110 109 113 115 116 115 114 114 112 114 116 118 123 127 132 135 141 147 156 155
86 89 89 90 92 94 96 99 100 99 103 106 108 111 117 120 120 117 118 118 114 112 113 114 112 110 116 119 118 115 109 110 109 115 120 122 127 130 137 142 148 154 158
85 88 87 88 88 89 92 95 96 98 102 102 105 110 116 119 115 118 117 117 118 115 113 115 114 114 117 119 117 116 112 111 110 116 117 124 127 129 137 141 140 141 151
83 83 85 85 86 85 87 91 92 95 98 100 106 111 111 110 112 113 113 111 113 115 117 117 120 116 115 113 114 118 120 120 115 118 120 120 124 131 135 133 139 147 148
80 81 84 87 87 86 88 92 93 93 95 98 102 106 108 109 111 111 111 109 112 115 119 119 118 115 117 115 116 117 120 124 122 123 123 123 126 130 134 134 142 153 154
79 80 82 85 87 86 88 91 93 94 95 95 96 98 103 106 106 104 104 103 107 110 112 114 114 117 119 119 123 124 125 130 132 129 134 137 136 136 138 147 154 162 168
78 81 83 85 84 84 86 90 91 92 94 95 96 99 103 103 101 100 100 97 98 100 106 108 110 112 119 120 119 127 133 139 140 139 146 148 152 157 162 167 172 175 176
74 80 83 83 82 82 83 86 88 87 92 92 95 98 101 100 97 95 93 91 93 94 99 99 99 100 109 113 124 129 126 138 151 163 176 185 185 183 184 181 180 178 185
72 78 82 83 82 83 82 84 85 84 86 85 87 90 93 94 91 93 93 93 96 91 96 99 103 102 106 108 121 127 134 164 189 199 209 211 201 202 202 205 196 195 201
73 78 78 79 79 81 80 80 82 83 86 86 85 87 87 88 89 91 96 93 94 91 97 97 94 96 100 107 111 119 142 173 210 223 235 239 230 222 222 227 209 221 223
72 75 75 76 77 77 78 80 79 80 84 87 86 82 79 78 81 81 91 90 87 81 84 80 85 89 85 90 92 81 156 219 237 238 240 246 238 234 233 228 223 223 223
70 71 71 72 73 73 74 78 81 82 82 83 80 77 74 69 69 70 69 72 69 62 63 69 77 74 70 52 24 10 300 276 259 245 239 244 251 246 240 238 238 237 238
66 66 67 68 68 69 71 72 75 78 78 76 75 70 67 68 70 68 66 60 55 54 45 47 52 50 54 25 347 326 317 300 283 261 251 254 255 251 252 252 247 245 245
63 63 63 63 63 64 66 68 66 70 70 66 66 64 60 64 65 63 58 51 46 41 29 19 17 14 2 353 339 324 317 311 300 284 276 268 258 254 260 261 254 251 254
60 59 60 59 59 59 60 62 60 64 64 59 56 53 49 50 55 51 44 38 37 33 21 360 351 352 346 336 329 325 325 321 312 290 280 270 258 258 263 269 264 259 260
57 57 57 56 55 55 56 57 57 58 53 49 46 41 38 40 35 32 26 13 10 6 357 344 339 337 322 317 317 321 326 323 322 309 290 275 264 264 269 271 269 266 266
53 52 52 54 52 51 51 50 48 47 41 37 36 36 33 34 25 22 19 3 352 349 343 332 334 334 326 326 321 310 313 312 314 312 297 287 278 272 270 272 275 273 270
49 50 50 48 46 46 44 42 39 36 31 30 33 30 28 27 21 20 21 11 357 344 338 328 319 323 327 327 327 322 315 311 308 307 298 290 290 286 281 277 278 279 277
45 44 44 41 39 38 37 34 34 32 33 34 32 28 26 25 26 29 27 14 356 352 341 327 317 314 320 326 326 324 321 311 307 305 306 296 291 288 286 284 280 279 279
39 39 39 37 34 32 30 29 28 29 28 24 20 19 23 22 15 15 11 9 2 352 346 335 324 317 315 320 322 324 325 320 311 307 306 306 297 291 288 285 283 282 281
35 34 33 32 31 29 27 27 26 26 25 22 20 20 20 18 14 7 4 1 358 350 343 342 328 314 311 309 310 312 311 311 311 309 306 303 301 295 292 290 287 285 284
28 27 26 26 25 24 23 22 23 24 23 21 18 22 20 17 12 8 3 355 348 343 344 341 339 328 318 314 310 310 309 309 310 307 307 304 302 298 291 288 288 287 284
Height
5872 5871 5871 5872 5872 5872 5873 5873 5873 5873 5873 5873 5873 5874 5874 5874 5874 5874 5874 5874 5874 5874 5875 5875 5875 5875 5876 5876 5876 5876 5876 5877 5878 5878 5878 5879 5879 5880 5881 5882 5883 5884 5885
5873 5873 5873 5873 5873 5873 5874 5874 5874 5874 5874 5874 5874 5875 5875 5875 5876 5876 5875 5875 5875 5876 5876 5876 5877 5877 5877 5877 5878 5878 5879 5879 5879 5880 5880 5880 5880 5880 5882 5883 5884 5885 5885
5875 5874 5874 5874 5875 5875 5875 5875 5876 5876 5876 5876 5876 5876 5876 5877 5877 5877 5877 5877 5877 5877 5878 5878 5878 5878 5879 5879 5879 5880 5880 5880 5881 5881 5881 5881 5882 5882 5883 5884 5884 5885 5886
5876 5876 5876 5876 5876 5876 5876 5877 5877 5877 5877 5877 5877 5878 5878 5878 5879 5879 5879 5879 5879 5879 5879 5880 5880 5880 5880 5881 5881 5881 5882 5882 5882 5882 5882 5883 5883 5884 5884 5885 5885 5886 5886
5878 5878 5878 5878 5878 5878 5878 5878 5878 5879 5878 5878 5879 5879 5879 5879 5880 5880 5880 5880 5880 5881 5881 5881 5881 5881 5881 5882 5882 5883 5883 5883 5883 5884 5884 5884 5884 5885 5885 5886 5886 5887 5887
5880 5880 5880 5880 5880 5880 5880 5880 5880 5880 5880 5880 5880 5880 5881 5881 5881 5881 5881 5881 5881 5882 5882 5883 5883 5883 5883 5883 5884 5884 5884 5884 5884 5885 5885 5885 5885 5886 5886 5887 5887 5887 5888
5882 5882 5882 5882 5882 5881 5881 5881 5881 5881 5881 5881 5881 5882 5882 5882 5883 5883 5883 5883 5883 5883 5883 5884 5884 5884 5884 5885 5885 5885 5885 5886 5886 5886 5886 5886 5886 5887 5887 5888 5888 5888 5889
5884 5884 5883 5883 5883 5883 5883 5883 5883 5883 5883 5883 5883 5883 5883 5884 5884 5884 5884 5884 5884 5884 5885 5885 5885 5885 5886 5886 5886 5886 5886 5887 5887 5887 5887 5887 5887 5887 5888 5888 5889 5889 5889
5886 5885 5885 5885 5885 5885 5885 5885 5885 5885 5885 5884 5884 5884 5885 5885 5885 5885 5886 5886 5886 5886 5886 5886 5887 5887 5887 5887 5887 5887 5887 5888 5888 5888 5888 5888 5888 5888 5888 5889 5889 5889 5889
5888 5888 5887 5887 5887 5887 5887 5886 5886 5886 5886 5886 5886 5886 5886 5887 5887 5887 5887 5887 5887 5888 5888 5888 5888 5888 5888 5888 5888 5888 5889 5889 5889 5889 5888 5889 5888 5888 5889 5889 5889 5889 5889
5891 5890 5890 5889 5889 5889 5889 5889 5888 5888 5888 5888 5888 5888 5888 5888 5888 5889 5889 5889 5889 5889 5889 5889 5889 5889 5889 5889 5889 5889 5889 5889 5889 5889 5889 5889 5889 5889 5889 5889 5889 5889 5889
5893 5892 5892 5892 5892 5891 5891 5891 5891 5891 5890 5890 5890 5890 5890 5890 5890 5890 5890 5890 5890 5890 5890 5890 5890 5890 5890 5890 5890 5890 5890 5890 5890 5890 5890 5889 5889 5889 5889 5889 5888 5889 5889
5896 5895 5895 5894 5894 5894 5893 5893 5893 5893 5893 5892 5892 5892 5891 5891 5892 5892 5892 5891 5892 5891 5891 5891 5891 5891 5891 5891 5890 5890 5890 5890 5890 5890 5890 5889 5889 5889 5889 5889 5888 5888 5888
5899 5898 5897 5897 5897 5896 5896 5895 5895 5895 5895 5894 5894 5894 5893 5893 5893 5893 5893 5893 5893 5892 5892 5892 5892 5892 5891 5891 5891 5890 5890 5890 5890 5890 5889 5889 5888 5888 5887 5887 5887 5887 5887
5901 5901 5900 5900 5899 5899 5898 5898 5897 5897 5897 5897 5896 5896 5895 5895 5895 5895 5895 5894 5894 5893 5892 5892 5892 5892 5891 5891 5890 5890 5890 5889 5889 5889 5888 5888 5887 5887 5887 5886 5886 5885 5885
5904 5904 5903 5902 5901 5901 5900 5900 5899 5899 5899 5898 5898 5897 5897 5896 5896 5896 5895 5895 5895 5894 5893 5893 5892 5892 5891 5891 5890 5890 5890 5889 5888 5887 5887 5887 5886 5886 5886 5886 5885 5885 5885
5907 5906 5905 5904 5903 5903 5902 5902 5901 5901 5900 5900 5899 5899 5898 5897 5897 5897 5896 5895 5895 5894 5894 5893 5893 5892 5891 5891 5891 5890 5889 5889 5887 5887 5886 5886 5885 5885 5885 5884 5884 5884 5884
5910 5909 5908 5907 5906 5905 5904 5903 5902 5902 5901 5901 5900 5900 5899 5899 5898 5897 5897 5896 5895 5895 5894 5893 5893 5892 5892 5891 5891 5890 5889 5888 5887 5886 5885 5885 5884 5884 5883 5883 5882 5882 5882
5913 5911 5910 5909 5908 5907 5906 5905 5904 5903 5902 5902 5901 5901 5900 5899 5898 5897 5897 5896 5895 5895 5894 5894 5893 5892 5891 5891 5890 5889 5888 5887 5886 5884 5884 5883 5883 5883 5882 5881 5881 5880 5880
5915 5914 5913 5911 5910 5909 5908 5907 5906 5905 5904 5903 5902 5901 5900 5899 5899 5898 5897 5896 5895 5895 5894 5893 5892 5891 5891 5890 5889 5889 5888 5886 5885 5884 5883 5882 5881 5881 5880 5880 5879 5879 5878
5917 5916 5915 5913 5912 5911 5909 5908 5907 5906 5905 5904 5902 5901 5900 5899 5898 5897 5897 5896 5895 5894 5894 5893 5892 5891 5890 5890 5889 5888 5887 5885 5884 5883 5882 5881 5880 5879 5879 5878 5877 5877 5876
5919 5918 5916 5915 5914 5912 5911 5910 5908 5907 5905 5904 5902 5901 5900 5899 5898 5897 5896 5895 5895 5894 5893 5892 5891 5890 5889 5889 5888 5886 5885 5885 5883 5882 5881 5880 5879 5878 5877 5876 5875 5874 5874
5922 5920 5919 5917 5915 5914 5912 5911 5909 5907 5906 5904 5903 5901 5900 5899 5898 5897 5896 5895 5894 5893 5892 5891 5890 5889 5888 5888 5886 5885 5884 5883 5882 5881 5879 5878 5877 5876 5875 5874 5873 5872 5871
5923 5922 5920 5919 5917 5915 5913 5911 5910 5908 5906 5905 5903 5902 5901 5900 5898 5897 5896 5895 5894 5893 5892 5890 5889 5888 5887 5886 5885 5884 5883 5881 5880 5879 5878 5876 5875 5873 5872 5871 5870 5869 5868
5924 5923 5921 5920 5918 5916 5914 5912 5910 5909 5907 5905 5904 5903 5901 5900 5899 5897 5896 5895 5894 5893 5891 5890 5888 5887 5886 5885 5884 5882 5881 5880 5878 5877 5875 5874 5872 5871 5869 5868 5867 5866 5864
5925 5924 5922 5920 5919 5917 5914 5912 5910 5909 5907 5906 5904 5902 5901 5900 5899 5897 5896 5895 5893 5892 5891 5889 5887 5885 5884 5883 5882 5880 5879 5878 5876 5875 5873 5871 5870 5868 5866 5865 5864 5862 5861